Weather History for Shreveport, LA

Change the Weather History Date:

Monday, July 8, 2013

  Actual Average Record
Temperature  
Mean Temperature 83 °F 83 °F  
Max Temperature 93 °F 93 °F 104 °F (1884)
Min Temperature 73 °F 73 °F 65 °F (1983)
Degree Days  
Heating Degree Days 0 0  
Month to date heating degree days 0 0  
Since 1 June heating degree days 0 0  
Since 1 July heating degree days 0 0  
Cooling Degree Days 18 18  
Month to date cooling degree days 117 139  
Year to date cooling degree days 1002 981  
Since 1 June cooling degree days 615 583  
Growing Degree Days 33 (Base 50)    
Moisture  
Dew Point 72 °F    
Average Humidity 73    
Maximum Humidity 100    
Minimum Humidity 46    
Precipitation  
Precipitation T in 0.14 in 1.83 in (1905)
Month to date precipitation T 1.12  
Year to date precipitation 24.60 28.73  
Snow  
Snow 0.00 in - - ()
Month to date snowfall 0.0  
Since 1 June snowfall 0.0  
Since 1 July snowfall 0.0  
Snow Depth 0.00 in    
Sea Level Pressure  
Sea Level Pressure 30.08 in    
Wind  
Wind Speed 7 mph (South)    
Max Wind Speed 15 mph    
Max Gust Speed 17 mph    
Visibility 10 miles    
Events Rain    
T = Trace of Precipitation, MM = Missing Value Source: NWS Daily Summary

Daily Weather History Graph

Daily Weather History Graph

Search for Another Location

Airport:

Trip Planner

Search our weather history database for the weather conditions in past years. The results will help you decide how hot, cold, wet, or windy it might be!

Date:

Astronomy

Jul. 08, 2013 Rise Set
Actual Time 6:15 AM CDT 8:25 PM CDT
Civil Twilight 5:47 AM CDT 8:53 PM CDT
Nautical Twilight 5:12 AM CDT 9:27 PM CDT
Astronomical Twilight 4:35 AM CDT 10:04 PM CDT
Moon 6:39 AM CDT (7/8) 8:34 PM CDT (7/8)
Length of Visible Light 15h 06m
Length of Day
14h 10m
New Moon, 0% of the Moon is Illuminated
Jul 8
New Moon
Jul 15
First Quarter
Jul 22
Full
Jul 29
Last Quarter
Aug 6
New

Hourly Weather History & Observations

Time (CDT) Temp. Heat Index Dew Point Humidity Pressure Visibility Wind Dir Wind Speed Gust Speed Precip Events Conditions
12:56 AM 75.9 °F - 73.0 °F 91% 30.02 in 10.0 mi SE 5.8 mph - N/A   Mostly Cloudy
1:56 AM 75.9 °F - 72.0 °F 87% 30.02 in 10.0 mi SSE 6.9 mph - N/A   Mostly Cloudy
2:56 AM 75.0 °F - 73.0 °F 94% 30.02 in 10.0 mi South 5.8 mph - N/A   Mostly Cloudy
3:56 AM 73.9 °F - 72.0 °F 93% 30.04 in 10.0 mi South 5.8 mph - N/A   Partly Cloudy
4:56 AM 73.9 °F - 72.0 °F 93% 30.07 in 10.0 mi Calm Calm - N/A   Partly Cloudy
5:56 AM 73.9 °F - 72.0 °F 93% 30.09 in 10.0 mi SSE 4.6 mph - N/A   Clear
6:35 AM 73.4 °F - 71.6 °F 94% 30.10 in 9.0 mi SSE 5.8 mph - N/A   Scattered Clouds
6:56 AM 73.9 °F - 73.0 °F 97% 30.10 in 9.0 mi SSE 4.6 mph - N/A   Mostly Cloudy
7:56 AM 77.0 °F - 73.9 °F 90% 30.11 in 10.0 mi SSE 6.9 mph - N/A   Overcast
8:14 AM 77.0 °F - 73.4 °F 89% 30.12 in 10.0 mi SSE 9.2 mph - N/A   Mostly Cloudy
8:46 AM 78.8 °F - 73.4 °F 83% 30.13 in 10.0 mi South 10.4 mph - N/A   Partly Cloudy
8:56 AM 80.1 °F 84.5 °F 73.9 °F 81% 30.12 in 10.0 mi South 9.2 mph - N/A   Partly Cloudy
9:12 AM 80.6 °F 85.4 °F 73.4 °F 79% 30.13 in 10.0 mi South 8.1 mph - N/A   Mostly Cloudy
9:46 AM 82.4 °F 89.5 °F 75.2 °F 79% 30.13 in 10.0 mi SSW 9.2 mph - N/A   Mostly Cloudy
9:56 AM 82.9 °F 89.4 °F 73.9 °F 74% 30.12 in 10.0 mi SSW 5.8 mph - N/A   Mostly Cloudy
10:14 AM 84.2 °F 92.3 °F 75.2 °F 74% 30.13 in 10.0 mi SSW 6.9 mph - N/A   Mostly Cloudy
10:56 AM 86.0 °F 93.0 °F 73.0 °F 65% 30.12 in 10.0 mi SSW 10.4 mph - N/A   Mostly Cloudy
11:56 AM 88.0 °F 94.7 °F 72.0 °F 59% 30.11 in 10.0 mi SW 6.9 mph - N/A   Partly Cloudy
12:56 PM 89.1 °F 96.0 °F 72.0 °F 57% 30.10 in 10.0 mi WSW 9.2 mph - N/A   Scattered Clouds
1:56 PM 89.1 °F 95.0 °F 71.1 °F 55% 30.09 in 10.0 mi SSW 9.2 mph - N/A   Mostly Cloudy
2:56 PM 91.9 °F 98.4 °F 71.1 °F 50% 30.07 in 10.0 mi SSW 5.8 mph - N/A   Scattered Clouds
3:03 PM 91.4 °F 98.4 °F 71.6 °F 52% 30.08 in 10.0 mi South 9.2 mph - N/A   Scattered Clouds
3:56 PM 93.0 °F 99.0 °F 70.0 °F 47% 30.05 in 10.0 mi Variable 6.9 mph - N/A   Scattered Clouds
4:56 PM 86.0 °F 92.2 °F 72.0 °F 63% 30.05 in 10.0 mi SW 8.1 mph - 0.00 in Rain Light Rain
5:56 PM 84.0 °F 90.2 °F 73.0 °F 69% 30.05 in 10.0 mi South 5.8 mph - 0.00 in   Mostly Cloudy
6:56 PM 86.0 °F 93.0 °F 73.0 °F 65% 30.04 in 10.0 mi SSW 9.2 mph - N/A   Scattered Clouds
7:56 PM 84.0 °F 89.0 °F 71.1 °F 65% 30.05 in 10.0 mi South 5.8 mph - N/A   Scattered Clouds
8:56 PM 82.0 °F 85.9 °F 70.0 °F 67% 30.06 in 10.0 mi South 8.1 mph - N/A   Scattered Clouds
9:56 PM 81.0 °F 84.4 °F 70.0 °F 69% 30.08 in 10.0 mi South 5.8 mph - N/A   Partly Cloudy
10:56 PM 79.0 °F - 71.1 °F 77% 30.08 in 10.0 mi South 4.6 mph - N/A   Partly Cloudy
11:56 PM 78.1 °F - 72.0 °F 81% 30.08 in 10.0 mi South 5.8 mph - N/A   Clear